KD4IZ-13 Weather Reports


time (UTC)temp
F
wind
direction
speed
knots
gust
knots
rain 1hr
in
rain 24hr
in
rain mn
in
humidity
%
barometer
mb
20260510073254 48 8 3.5 4.3 0.00 0.00 0.00 99 1013.0
20260510072749 47 53 0.9 1.7 0.00 0.00 0.00 99 1012.9
20260510072246 47 72 0.0 0.0 0.00 0.00 0.00 99 1012.3
20260510071743 47 87 0.0 0.0 0.00 0.00 0.00 99 1012.6
20260510071239 47 87 0.9 0.9 0.00 0.00 0.00 99 1012.4
20260510070738 47 84 0.9 0.9 0.00 0.00 0.00 99 1012.6
20260510070235 48 72 0.0 0.0 0.00 0.00 0.00 99 1012.4
20260510065729 47 10 0.9 1.7 0.00 0.00 0.00 99 1012.2
20260510065226 46 359 0.0 0.0 0.00 0.00 0.00 99 1012.4
20260510064723 46 359 0.0 0.0 0.00 0.00 0.00 99 1012.3
20260510064221 46 359 0.0 0.0 0.00 0.00 0.00 99 1012.1
20260510063717 47 358 0.0 0.0 0.00 0.00 0.00 99 1011.9
20260510063213 47 357 0.0 0.0 0.00 0.00 0.00 99 1012.0
20260510062710 46 356 0.0 0.0 0.00 0.00 0.00 99 1011.9
20260510062206 47 353 0.0 0.9 0.00 0.00 0.00 99 1012.0
20260510061701 47 71 0.9 0.9 0.00 0.00 0.00 99 1012.0
20260510061159 48 71 0.0 0.0 0.00 0.00 0.00 99 1011.9
20260510060655 48 71 0.0 0.0 0.00 0.00 0.00 99 1012.0
20260510060152 48 71 0.0 0.0 0.00 0.00 0.00 99 1012.1
20260510055648 47 71 0.0 0.0 0.00 0.00 0.00 99 1012.0
20260510055146 48 71 0.0 0.0 0.00 0.00 0.00 99 1012.2
20260510054641 47 71 0.0 0.0 0.00 0.00 0.00 99 1012.0
20260510054138 48 71 0.0 0.0 0.00 0.00 0.00 99 1012.2
20260510053636 49 70 0.0 0.9 0.00 0.00 0.00 99 1012.1
20260510053133 48 70 0.0 0.0 0.00 0.00 0.00 99 1012.0
20260510052629 49 70 0.0 0.0 0.00 0.00 0.00 99 1012.2
20260510052126 49 70 0.0 0.0 0.00 0.00 0.00 99 1012.0
20260510051621 49 70 0.0 0.0 0.00 0.00 0.00 99 1012.1
20260510051118 49 70 0.0 0.0 0.00 0.00 0.00 99 1011.9
20260510050615 49 70 0.0 0.0 0.00 0.00 0.00 99 1012.1
20260510050112 49 70 0.0 0.0 0.00 0.00 0.00 99 1012.5
20260510045604 49 70 0.0 0.0 0.00 0.00 0.00 99 1012.3
20260510045059 49 70 0.0 0.0 0.00 0.00 0.00 99 1012.2
20260510044555 49 70 0.0 0.0 0.00 0.00 0.00 99 1012.4
20260510044053 49 70 0.0 0.0 0.00 0.00 0.00 99 1012.3
20260510043548 49 70 0.0 0.0 0.00 0.00 0.00 99 1012.3
20260510043045 50 70 0.0 0.0 0.00 0.00 0.00 99 1012.5
20260510042539 50 70 0.0 0.0 0.00 0.00 0.00 99 1012.4
20260510042034 50 70 0.0 0.0 0.00 0.00 0.00 99 1012.3
20260510041531 50 71 0.0 0.0 0.00 0.00 0.00 99 1012.5
20260510041028 49 70 0.0 0.0 0.00 0.00 0.00 99 1012.3
20260510040520 50 70 0.0 0.0 0.00 0.00 0.00 99 1012.5
20260510040015 50 70 0.0 0.0 0.00 0.00 0.00 99 1012.6
20260510035512 50 70 0.0 0.0 0.00 0.00 0.00 99 1012.1
20260510035011 50 70 0.0 0.0 0.00 0.00 0.00 99 1012.5
20260510034511 50 70 0.0 0.0 0.00 0.00 0.00 99 1012.4
20260510034006 51 70 0.0 0.0 0.00 0.00 0.00 99 1012.4
20260510033503 50 70 0.0 0.0 0.00 0.00 0.00 99 1012.6
20260510033001 50 70 0.0 0.0 0.00 0.00 0.00 99 1012.5
20260510032457 51 70 0.0 0.0 0.00 0.00 0.00 99 1012.4
20260510031957 51 70 0.0 0.0 0.00 0.00 0.00 99 1012.6
20260510031453 52 70 0.0 0.9 0.00 0.00 0.00 99 1012.3
20260510030949 52 70 0.0 0.0 0.00 0.00 0.00 99 1012.4
20260510030444 52 70 0.0 0.0 0.00 0.00 0.00 99 1012.5
20260510025942 52 70 0.0 0.0 0.00 0.00 0.00 99 1012.6
20260510025439 53 70 0.0 0.0 0.00 0.00 0.00 99 1012.1
20260510024937 52 71 0.0 0.0 0.00 0.00 0.00 99 1012.3
20260510024433 53 71 0.0 0.0 0.00 0.00 0.00 99 1012.3
20260510023928 53 70 0.0 0.0 0.00 0.00 0.00 98 1012.5
20260510023425 53 71 0.0 0.0 0.00 0.00 0.00 98 1012.1
20260510022922 53 71 0.0 0.0 0.00 0.00 0.00 98 1012.2
20260510022421 53 71 0.0 0.0 0.00 0.00 0.00 98 1012.1
20260510021920 53 71 0.0 0.0 0.00 0.00 0.00 97 1012.0
20260510021419 53 71 0.0 0.0 0.00 0.00 0.00 97 1012.1
20260510020915 53 71 0.0 0.0 0.00 0.00 0.00 97 1012.0
20260510020410 53 71 0.0 0.0 0.00 0.00 0.00 97 1011.9
20260510015906 54 71 0.0 0.0 0.00 0.00 0.00 97 1011.8
20260510015402 54 71 0.0 0.0 0.00 0.00 0.00 97 1011.8
20260510014857 54 71 0.0 0.0 0.00 0.00 0.00 96 1012.0
20260510014355 54 71 0.0 0.0 0.00 0.00 0.00 95 1011.7
20260510013851 55 70 0.0 0.0 0.00 0.00 0.00 94 1011.7
20260510013346 55 70 0.0 0.0 0.00 0.00 0.00 94 1011.7
20260510012841 55 70 0.0 0.0 0.00 0.00 0.00 93 1011.7
20260510012341 55 71 0.0 0.0 0.00 0.00 0.00 93 1011.7
20260510011836 56 71 0.0 0.0 0.00 0.00 0.00 92 1011.6
20260510011332 56 71 0.0 0.0 0.00 0.00 0.00 92 1011.4
20260510010829 56 71 0.0 0.0 0.00 0.00 0.00 92 1011.5
20260510010326 56 71 0.0 0.0 0.00 0.00 0.00 92 1011.4
20260510005822 57 71 0.0 0.0 0.00 0.00 0.00 92 1011.3
20260510005319 57 71 0.0 0.0 0.00 0.00 0.00 91 1011.2
20260510004817 57 71 0.0 0.0 0.00 0.00 0.00 89 1011.0
20260510004314 58 71 0.0 0.0 0.00 0.00 0.00 89 1011.0
20260510003812 58 71 0.9 0.9 0.00 0.00 0.00 89 1011.0
20260510003308 58 72 0.0 0.0 0.00 0.00 0.00 88 1010.9
20260510002807 59 72 0.0 0.9 0.00 0.00 0.00 87 1011.1
20260510002307 59 65 0.9 0.9 0.00 0.00 0.00 86 1011.0
20260510001801 60 62 0.9 0.9 0.00 0.00 0.00 86 1010.8
20260510001259 60 71 0.9 0.9 0.00 0.00 0.00 85 1011.0
20260510000754 60 90 0.9 0.9 0.00 0.00 0.00 85 1011.0
20260510000253 60 72 0.0 0.9 0.00 0.00 0.00 84 1010.8
20260509235749 61 71 0.9 1.7 0.00 0.00 0.00 83 1010.7
20260509235246 61 78 0.9 0.9 0.00 0.00 0.00 83 1011.0
20260509234741 61 71 0.0 0.9 0.00 0.00 0.00 82 1010.9
20260509234238 62 69 0.9 0.9 0.00 0.00 0.00 81 1010.9
20260509233737 62 72 1.7 2.6 0.00 0.00 0.00 81 1010.8
20260509233234 62 57 0.9 0.9 0.00 0.00 0.00 80 1010.8
20260509232730 62 43 1.7 2.6 0.00 0.00 0.00 79 1010.8
20260509232227 63 60 0.9 0.9 0.00 0.00 0.00 79 1010.9
20260509231724 63 71 0.9 1.7 0.00 0.00 0.00 79 1010.7
20260509231221 63 57 0.9 0.9 0.00 0.00 0.00 78 1010.7
20260509230719 63 52 0.9 0.9 0.00 0.00 0.00 78 1010.8
20260509230215 63 25 1.7 1.7 0.00 0.00 0.00 78 1010.9
20260509225710 64 43 1.7 1.7 0.00 0.00 0.00 76 1010.8
20260509225206 64 50 0.9 0.9 0.00 0.00 0.00 76 1010.8
20260509224702 64 64 0.9 0.9 0.00 0.00 0.00 77 1010.7
20260509224159 64 40 0.9 0.9 0.00 0.00 0.00 76 1010.8
20260509223656 64 64 1.7 1.7 0.00 0.00 0.00 75 1010.9
20260509223153 65 46 2.6 2.6 0.00 0.00 0.00 75 1010.7
20260509222650 64 54 0.9 0.9 0.00 0.00 0.00 76 1010.7
20260509222146 64 16 0.9 1.7 0.00 0.00 0.00 76 1010.8
20260509221642 64 40 0.0 0.9 0.00 0.00 0.00 76 1010.4
20260509221138 64 71 0.9 0.9 0.00 0.00 0.00 75 1010.7
20260509220634 64 49 2.6 2.6 0.00 0.00 0.00 76 1010.8
20260509220130 64 32 0.9 0.9 0.00 0.00 0.00 77 1010.7
20260509215627 64 70 0.0 0.9 0.00 0.00 0.00 77 1010.6
20260509215123 63 54 1.7 1.7 0.00 0.00 0.00 78 1010.8
20260509214621 63 87 4.3 5.2 0.00 0.00 0.00 77 1010.8
20260509214117 63 6 3.5 4.3 0.00 0.00 0.00 77 1011.1
20260509213613 63 33 0.9 0.9 0.00 0.00 0.00 78 1010.8
20260509213110 63 26 2.6 4.3 0.00 0.00 0.00 77 1010.9
20260509212607 62 34 2.6 2.6 0.00 0.00 0.00 78 1010.8
20260509212104 63 15 1.7 1.7 0.00 0.00 0.00 77 1011.2
20260509211600 63 22 0.9 1.7 0.00 0.00 0.00 79 1010.9
20260509211057 62 31 2.6 4.3 0.00 0.00 0.00 77 1011.0
20260509210554 62 28 1.7 2.6 0.00 0.00 0.00 78 1011.1
20260509210050 62 52 1.7 2.6 0.00 0.00 0.00 78 1010.8
20260509205544 62 28 2.6 2.6 0.00 0.00 0.00 78 1011.0
20260509205039 62 42 1.7 1.7 0.00 0.00 0.00 77 1011.0
20260509204536 62 40 2.6 2.6 0.00 0.00 0.00 78 1011.0
20260509204032 62 22 2.6 4.3 0.00 0.00 0.00 76 1011.1
20260509203528 62 51 0.9 0.9 0.00 0.00 0.00 78 1011.1
20260509203027 62 18 3.5 4.3 0.00 0.00 0.00 77 1011.0
20260509202521 62 34 1.7 2.6 0.00 0.00 0.00 77 1011.0
20260509202017 62 34 1.7 1.7 0.00 0.00 0.00 79 1011.0
20260509201512 62 49 1.7 1.7 0.00 0.00 0.00 78 1011.1
20260509201009 62 23 2.6 2.6 0.00 0.00 0.00 78 1011.2
20260509200504 62 41 0.9 1.7 0.00 0.00 0.00 78 1011.0
20260509200001 62 39 2.6 2.6 0.00 0.00 0.00 77 1011.4
20260509195456 62 71 2.6 2.6 0.00 0.00 0.00 75 1011.3
20260509194956 62 40 0.0 0.9 0.00 0.00 0.00 75 1011.4
20260509194451 63 65 2.6 2.6 0.00 0.00 0.00 74 1011.3
20260509193948 63 47 0.0 0.0 0.00 0.00 0.00 75 1011.4
20260509193443 63 56 1.7 1.7 0.00 0.00 0.00 76 1011.3
20260509192939 63 69 1.7 1.7 0.00 0.00 0.00 74 1011.2
20260509192436 63 68 0.0 0.0 0.00 0.00 0.00 73 1011.4
20260509191931 64 64 0.0 0.0 0.00 0.00 0.00 74 1011.5
20260509191426 63 87 0.0 0.0 0.00 0.00 0.00 71 1011.5
20260509190923 62 269 0.9 0.9 0.00 0.00 0.00 72 1011.5
20260509190420 63 45 0.9 0.9 0.00 0.00 0.00 75 1011.4
20260509185918 62 111 0.9 1.7 0.00 0.00 0.00 75 1011.4
20260509185415 62 54 2.6 2.6 0.00 0.00 0.00 75 1011.2
20260509184911 63 87 2.6 4.3 0.00 0.00 0.00 74 1011.4
20260509184408 62 96 2.6 4.3 0.00 0.00 0.00 75 1011.6
20260509183905 61 66 1.7 2.6 0.00 0.00 0.00 75 1011.7
20260509183359 61 81 4.3 5.2 0.00 0.00 0.00 75 1012.0
20260509182856 62 94 2.6 4.3 0.00 0.00 0.00 79 1011.9
20260509182353 61 34 0.9 0.9 0.00 0.00 0.00 79 1011.9
20260509181851 61 83 1.7 1.7 0.00 0.00 0.00 78 1012.1
20260509181347 61 34 0.9 1.7 0.00 0.00 0.00 82 1012.2
20260509180845 61 32 0.9 1.7 0.00 0.00 0.00 80 1012.4
20260509180340 60 45 0.9 0.9 0.00 0.00 0.00 80 1012.6
20260509175838 61 9 3.5 4.3 0.00 0.00 0.00 77 1012.8
20260509175334 61 33 0.9 0.9 0.00 0.00 0.00 76 1013.0
20260509174830 61 323 2.6 2.6 0.00 0.00 0.00 74 1012.9
20260509174326 61 40 1.7 1.7 0.00 0.00 0.00 73 1012.7
20260509173822 61 28 1.7 1.7 0.00 0.00 0.00 73 1012.8
20260509173317 61 18 0.0 0.0 0.00 0.00 0.00 72 1012.7
20260509172814 61 34 0.9 0.9 0.00 0.00 0.00 73 1012.8
20260509172311 60 37 2.6 2.6 0.00 0.00 0.00 73 1012.7
20260509171806 61 9 3.5 4.3 0.00 0.00 0.00 72 1012.6
20260509171303 61 34 1.7 1.7 0.00 0.00 0.00 72 1012.8
20260509170759 61 13 1.7 2.6 0.00 0.00 0.00 73 1012.9
20260509170255 61 44 1.7 1.7 0.00 0.00 0.00 71 1012.8
20260509165754 61 39 0.9 1.7 0.00 0.00 0.00 72 1012.8
20260509165249 61 39 0.0 0.9 0.00 0.00 0.00 71 1012.9
20260509164746 62 15 2.6 4.3 0.00 0.00 0.00 68 1012.8
20260509164242 61 9 1.7 2.6 0.00 0.00 0.00 70 1012.9
20260509163739 61 35 2.6 2.6 0.00 0.00 0.00 69 1012.8
20260509163235 61 5 1.7 1.7 0.00 0.00 0.00 69 1012.8
20260509162734 62 358 3.5 4.3 0.00 0.00 0.00 69 1013.2
20260509162228 62 310 2.6 2.6 0.00 0.00 0.00 67 1013.0
20260509161724 61 60 0.0 0.9 0.00 0.00 0.00 66 1013.0
20260509161220 62 344 1.7 1.7 0.00 0.00 0.00 65 1012.9
20260509160715 61 306 2.6 2.6 0.00 0.00 0.00 70 1013.1
20260509160212 62 304 2.6 2.6 0.00 0.00 0.00 73 1012.9
20260509155707 61 273 1.7 2.6 0.00 0.00 0.00 74 1012.8
20260509155204 61 25 0.9 0.9 0.00 0.00 0.00 75 1013.0
20260509154700 60 25 2.6 2.6 0.00 0.00 0.00 76 1013.1
20260509154157 60 23 0.9 1.7 0.00 0.00 0.00 75 1013.0
20260509153654 60 18 0.9 1.7 0.00 0.00 0.00 75 1013.1
20260509153150 59 313 2.6 2.6 0.00 0.00 0.00 74 1013.0
20260509152646 58 63 1.7 1.7 0.00 0.00 0.00 81 1013.1
20260509152144 58 36 1.7 1.7 0.00 0.00 0.00 84 1013.1
20260509151640 57 98 0.9 0.9 0.00 0.00 0.00 86 1013.6
20260509151137 57 168 0.9 0.9 0.00 0.00 0.00 86 1013.2
20260509150635 56 69 1.7 1.7 0.00 0.00 0.00 86 1012.8
20260509150133 57 50 2.6 2.6 0.00 0.00 0.00 87 1013.2
20260509145629 57 68 0.9 1.7 0.00 0.00 0.00 85 1013.5
20260509145124 57 76 0.9 0.9 0.00 0.00 0.00 85 1013.8
20260509144621 57 76 0.0 0.9 0.00 0.00 0.00 86 1013.8
20260509144119 57 40 1.7 1.7 0.00 0.00 0.00 83 1013.6
20260509143616 57 27 0.0 0.0 0.00 0.00 0.00 84 1013.8
20260509143113 57 27 0.0 0.0 0.00 0.00 0.00 83 1013.6
20260509142608 57 28 0.9 0.9 0.00 0.00 0.00 82 1013.7
20260509142105 57 50 0.0 0.0 0.00 0.00 0.00 82 1013.4
20260509141601 57 34 1.7 1.7 0.00 0.00 0.00 81 1013.4
20260509141057 57 33 0.0 0.0 0.00 0.00 0.00 82 1013.5
20260509140555 57 131 0.9 0.9 0.00 0.00 0.00 83 1013.5
20260509140052 57 54 0.0 0.0 0.00 0.00 0.00 83 1013.4
20260509135549 57 54 0.9 0.9 0.00 0.00 0.00 82 1013.2
20260509135047 56 54 0.9 0.9 0.00 0.00 0.00 80 1013.1
20260509134544 57 96 0.9 0.9 0.00 0.00 0.00 80 1013.1
20260509134041 57 51 0.0 0.0 0.00 0.00 0.00 79 1012.9
20260509133538 57 118 0.9 0.9 0.00 0.00 0.00 78 1013.1
20260509133036 57 48 0.0 0.9 0.00 0.00 0.00 77 1012.8
20260509132533 57 169 0.0 0.0 0.00 0.00 0.00 75 1013.2
20260509132032 57 169 0.0 0.0 0.00 0.00 0.00 73 1013.1
20260509131522 57 169 0.0 0.0 0.00 0.00 0.00 73 1013.1
20260509131019 57 168 0.9 0.9 0.00 0.00 0.00 74 1013.1
20260509130514 57 178 1.7 1.7 0.00 0.00 0.00 74 1013.1
20260509130012 57 138 0.0 0.9 0.00 0.00 0.00 73 1013.2
20260509125508 57 69 0.9 0.9 0.00 0.00 0.00 73 1013.0
20260509125004 57 142 0.9 0.9 0.00 0.00 0.00 74 1013.1
20260509124501 57 140 0.9 0.9 0.00 0.00 0.00 72 1012.9
20260509123958 57 167 0.9 0.9 0.00 0.00 0.00 73 1013.1
20260509123456 57 70 0.9 0.9 0.00 0.00 0.00 72 1012.9
20260509122951 57 143 0.9 0.9 0.00 0.00 0.00 73 1013.1
20260509122449 57 174 0.9 0.9 0.00 0.00 0.00 71 1013.1
20260509121945 57 113 0.0 0.0 0.00 0.00 0.00 72 1013.1
20260509121442 57 184 0.9 0.9 0.00 0.00 0.00 71 1013.0
20260509120940 57 158 0.0 0.0 0.00 0.00 0.00 71 1013.1
20260509120438 57 103 0.9 0.9 0.00 0.00 0.00 71 1012.8
20260509115936 57 103 0.9 0.9 0.00 0.00 0.00 70 1013.2
20260509115433 57 142 0.0 0.9 0.00 0.00 0.00 71 1013.2
20260509114930 57 142 0.9 1.7 0.00 0.00 0.00 72 1013.1
20260509114429 56 151 1.7 1.7 0.00 0.00 0.00 71 1013.1
20260509113928 56 193 1.7 1.7 0.00 0.00 0.00 70 1013.1
20260509113425 56 49 0.0 0.0 0.00 0.00 0.00 73 1012.9
20260509112922 56 83 0.9 1.7 0.00 0.00 0.00 74 1012.7
20260509112419 55 86 0.9 1.7 0.00 0.00 0.00 73 1012.8
20260509111916 55 81 0.9 0.9 0.00 0.00 0.00 72 1012.5
20260509111413 55 80 0.0 0.0 0.00 0.00 0.00 75 1012.5
20260509110910 55 80 0.0 0.0 0.00 0.00 0.00 72 1012.4
20260509110406 55 80 0.9 0.9 0.00 0.00 0.00 72 1012.6
20260509105904 55 80 0.0 0.0 0.00 0.00 0.00 73 1012.7
20260509105402 54 280 0.9 0.9 0.00 0.00 0.00 74 1012.4
20260509104859 54 281 0.0 0.0 0.00 0.00 0.00 74 1012.2
20260509104356 54 281 0.0 0.0 0.00 0.00 0.00 76 1012.2
20260509103853 54 281 0.0 0.0 0.00 0.00 0.00 76 1012.3
20260509103350 55 280 0.0 0.0 0.00 0.00 0.00 75 1012.2
20260509102849 55 280 0.9 0.9 0.00 0.00 0.00 74 1012.2
20260509102346 55 272 2.6 2.6 0.00 0.00 0.00 72 1012.2
20260509101841 55 225 3.5 4.3 0.00 0.00 0.00 72 1012.3
20260509101338 55 245 2.6 4.3 0.00 0.00 0.00 72 1012.2
20260509100836 55 249 2.6 4.3 0.00 0.00 0.00 73 1012.2
20260509100333 55 242 0.0 0.0 0.00 0.00 0.00 73 1012.1
20260509095830 55 264 2.6 2.6 0.00 0.00 0.00 72 1012.3
20260509095327 55 260 1.7 1.7 0.00 0.00 0.00 72 1012.2
20260509094824 55 233 1.7 1.7 0.00 0.00 0.00 71 1012.2
20260509094320 55 250 0.9 0.9 0.00 0.00 0.00 71 1012.2
20260509093818 55 211 0.9 1.7 0.00 0.00 0.00 71 1012.3
20260509093315 55 261 1.7 1.7 0.00 0.00 0.00 70 1012.2
20260509092814 55 212 0.9 0.9 0.00 0.00 0.00 71 1012.2
20260509092311 55 180 0.0 0.9 0.00 0.00 0.00 71 1012.4
20260509091809 55 229 1.7 1.7 0.00 0.00 0.00 70 1012.3
20260509091305 55 186 0.0 0.0 0.00 0.00 0.00 71 1012.2
20260509090803 55 238 0.9 1.7 0.00 0.00 0.00 70 1012.1
20260509090300 55 268 3.5 4.3 0.00 0.00 0.00 70 1012.2
20260509085757 56 237 2.6 2.6 0.00 0.00 0.00 70 1012.3
20260509085255 56 165 2.6 4.3 0.00 0.00 0.00 69 1012.3
20260509084751 56 239 1.7 1.7 0.00 0.00 0.00 70 1012.4
20260509084248 56 197 0.9 0.9 0.00 0.00 0.00 70 1012.3
20260509083746 56 247 2.6 2.6 0.00 0.00 0.00 69 1012.5
20260509083242 55 218 1.7 1.7 0.00 0.00 0.00 70 1012.5
20260509082739 55 172 0.9 1.7 0.00 0.00 0.00 70 1012.7
20260509082235 55 260 0.9 0.9 0.00 0.00 0.00 70 1012.8
20260509081732 55 220 2.6 2.6 0.00 0.00 0.00 70 1012.6
20260509081230 55 190 1.7 1.7 0.00 0.00 0.00 70 1012.5
20260509080728 55 107 0.9 0.9 0.00 0.00 0.00 70 1012.4
20260509080225 55 84 0.0 0.9 0.00 0.00 0.00 70 1012.8
20260509075723 55 130 0.0 0.9 0.00 0.00 0.00 70 1013.0
20260509075221 55 139 0.9 1.7 0.00 0.00 0.00 71 1012.8
20260509074718 55 63 0.9 0.9 0.00 0.00 0.00 71 1012.6
20260509074215 55 131 0.0 0.9 0.00 0.00 0.00 70 1012.7
20260509073711 55 104 0.9 0.9 0.00 0.00 0.00 70 1012.5